Printer-friendly version
Follow the MPC on Twitter Follow the MPC on Facebook The MPC blog
Minor Planet Center

MPEC 2006-V65 : 2006 RJ103

The following Minor Planet Electronic Circular may be linked-to from your own Web pages, but must not otherwise be redistributed electronically.

A form allowing access to any MPEC is at the bottom of this page.


Read MPEC 2006-V64 Read MPEC 2006-V66


M.P.E.C. 2006-V65                                Issued 2006 Nov. 15, 16:49 UT

     The Minor Planet Electronic Circulars contain information on unusual
         minor planets and routine data on comets.  They are published
   on behalf of Commission 20 of the International Astronomical Union by the
          Minor Planet Center, Smithsonian Astrophysical Observatory,
                          Cambridge, MA 02138, U.S.A.

             Prepared using the Tamkin Foundation Computer Network

                              MPC@CFA.HARVARD.EDU
          URL http://cfa-www.harvard.edu/iau/mpc.html  ISSN 1523-6714

                                  2006 RJ103

Observations:
     K06RA3J  C2005 09 13.33674 01 18 14.45 -00 33 17.4          22.5 V EV065705
     K06RA3J  C2005 09 25.36360 01 17 09.60 -00 41 20.9          22.6   EV065705
     K06RA3J  C2005 09 27.32751 01 16 58.39 -00 42 39.7          22.6   EV065705
     K06RA3J  C2005 10 27.30270 01 13 58.87 -01 01 02.5          22.3 V EV065705
     K06RA3J  C2005 10 30.27049 01 13 41.64 -01 02 32.9          22.2 V EV065705
     K06RA3J  C2005 10 31.26578 01 13 35.95 -01 03 02.1          22.1 V EV065705
     K06RA3J  C2005 11 02.35512 01 13 24.11 -01 04 01.7          22.3 V EV065705
     K06RA3J  C2005 11 07.31821 01 12 56.88 -01 06 12.9          22.6 V EV065705
     K06RA3J* C2006 09 12.36801 01 26 27.62 +00 12 50.9          22.0 V EV065705
     K06RA3J  C2006 09 12.36884 01 26 27.61 +00 12 50.6          22.5   EV065705
     K06RA3J  C2006 09 18.36158 01 25 57.50 +00 08 55.4          22.7 V EV065705
     K06RA3J  C2006 09 18.36490 01 25 57.47 +00 08 55.2          23.6   EV065705
     K06RA3J  C2006 09 30.32035 01 24 51.17 +00 00 59.0          22.5 V EV065705
     K06RA3J  C2006 09 30.32367 01 24 51.14 +00 00 58.6          23.2   EV065705
     K06RA3J  C2006 10 02.31479 01 24 39.50 -00 00 19.9          22.8 V EV065705
     K06RA3J  C2006 10 02.31811 01 24 39.48 -00 00 20.0          23.6   EV065705
     K06RA3J  C2006 10 03.37767 01 24 33.23 -00 01 01.7          22.3 V EV065705
     K06RA3J  C2006 10 03.38099 01 24 33.21 -00 01 01.8          22.9   EV065705
     K06RA3J  C2006 10 13.38098 01 23 33.00 -00 07 25.4          22.7 V EV065705
     K06RA3J  C2006 10 13.38181 01 23 32.99 -00 07 25.8          23.7   EV065705
     K06RA3J  C2006 10 17.37570 01 23 08.63 -00 09 51.5          22.0 V EV065705
     K06RA3J  C2006 10 17.37902 01 23 08.59 -00 09 51.7          23.0   EV065705
     K06RA3J  C2006 10 21.30578 01 22 44.71 -00 12 10.5          22.5 V EV065705
     K06RA3J  C2006 10 21.30910 01 22 44.68 -00 12 10.4          23.3   EV065705
     K06RA3J  C2006 10 29.28654 01 21 56.90 -00 16 31.9          22.6 V EV065705
     K06RA3J  C2006 10 29.28986 01 21 56.87 -00 16 32.1          23.3   EV065705
     K06RA3J  C2006 11 01.30081 01 21 39.31 -00 18 02.6          22.1 V EV065705
     K06RA3J  C2006 11 01.30164 01 21 39.31 -00 18 02.5          22.7   EV065705

Observer details:
705 Apache Point.  Observer SDSS Collaboration.  Measurers A. C. Becker,
    A. W. Puckett, J. Kubica.  2.5-m f/5 Ritchey-Chretien + CCD.

Orbital elements:
2006 RJ103
Epoch 2006 Sept. 22.0 TT = JDT 2454000.5                MPC
M 225.97575              (2000.0)            P               Q
n   0.00601242     Peri.   34.82755     -0.90618317     -0.40493115
a  29.9527274      Node   120.83739     +0.34853430     -0.87841578
e   0.0296535      Incl.    8.16281     +0.23949094     -0.25380401
P 163.93           H    7.5           G   0.15           U   5
Residuals in seconds of arc
050913 705  0.3+  0.0     060918 705  0.2+  0.0     061017 705  0.1+  0.3+
050925 705  0.5-  0.2-    060918 705  0.0   0.1-    061017 705  0.2-  0.2+
050927 705  0.2+  0.0     060930 705  0.0   0.0     061021 705  0.1+  0.1-
051027 705  0.1+  0.0     060930 705  0.1-  0.3-    061021 705  0.1-  0.1+
051030 705  0.1-  0.0     061002 705  0.0   0.0     061029 705  0.1+  0.0
051031 705  0.0   0.1+    061002 705  0.0   0.0     061029 705  0.1-  0.1-
051102 705  0.0   0.1+    061003 705  0.0   0.0     061101 705  0.0   0.0
051107 705  0.0   0.1+    061003 705  0.0   0.0     061101 705  0.0   0.1+
060912 705  0.1+  0.1+    061013 705  0.1+  0.1+
060912 705  0.0   0.2-    061013 705  0.0   0.3-

Ephemeris:
2006 RJ103               a,e,i = 29.95, 0.03, 8                  q = 29.065
Date    TT    R. A. (2000) Decl.     Delta      r     Elong.  Phase     V
2006 11 11    01 20.76   -00 22.3   29.726   30.580   149.1     1.0    22.4
2006 11 21    01 19.93   -00 25.7   29.825   30.579   139.2     1.2    22.5
2006 12 01    01 19.24   -00 27.8   29.947   30.579   129.1     1.4    22.5
2006 12 11    01 18.71   -00 28.6   30.089   30.578   119.0     1.6    22.5
2006 12 21    01 18.37   -00 28.1   30.246   30.577   108.8     1.7    22.5
2006 12 31    01 18.23   -00 26.1   30.412   30.577    98.7     1.8    22.6
2007 01 10    01 18.30   -00 22.9   30.583   30.576    88.7     1.8    22.6
2007 01 20    01 18.57   -00 18.4   30.753   30.576    78.7     1.8    22.6
2007 01 30    01 19.06   -00 12.8   30.918   30.575    68.8     1.7    22.6
2007 02 09    01 19.73   -00 06.2   31.071   30.574    58.9     1.6    22.6
2007 02 19    01 20.58   +00 01.2   31.210   30.574    49.2     1.4    22.6
2007 03 01    01 21.59   +00 09.2   31.329   30.573    39.6     1.2    22.6
2007 03 11    01 22.72   +00 17.6   31.427   30.572    30.2     0.9    22.6

     This 1:1 Neptune librator remains more than 25 AU from Neptune over a
14 000-year period.

Brian G. Marsden             (C) Copyright 2006 MPC           M.P.E.C. 2006-V65

Read MPEC 2006-V64 Read MPEC 2006-V66


MPEC number:

Enter an MPEC number in one of the following forms:

  • 1997-B01 (the full form)
  • J97B01 (the packed version of the full form)
  • B01 (the abbreviated form)

Valid HTML 4.01!